Red Bluff, CA

8:39 AM PST on November 12, 2019 (GMT -0800)
Red Bluff Municipal

Weather History for KRBL - September, 2019

Change the Weather History Date:

Sunday, September 22, 2019

  Actual Average Record
Temperature  
Mean Temperature 70 °F -  
Max Temperature 86 °F 88 °F 110 °F (1943)
Min Temperature 55 °F 58 °F 48 °F (1986)
Cooling Degree Days 6    
Growing Degree Days 20 (Base 50)    
Moisture  
Dew Point 48 °F    
Average Humidity 46    
Maximum Humidity 67    
Minimum Humidity 18    
Precipitation  
Precipitation 0.00 in - - ()
Sea Level Pressure  
Sea Level Pressure 29.89 in    
Wind  
Wind Speed 6 mph (NW)    
Max Wind Speed 12 mph    
Max Gust Speed -    
Visibility 10 miles    
Events      
Averages and records for this station are not official NWS values.
T = Trace of Precipitation, MM = Missing Value Source: NWS Daily Summary

Daily Weather History Graph

Daily Weather History Graph

Search for Another Location

Airport or City:

Astronomy

Sep. 22, 2019 Rise Set
Actual Time 6:56 AM PDT 7:06 PM PDT
Civil Twilight 6:29 AM PDT 7:33 PM PDT
Nautical Twilight 5:57 AM PDT 8:05 PM PDT
Astronomical Twilight 5:25 AM PDT 8:37 PM PDT
Moon No Moon Rise 3:07 PM PDT (9/22)
Length of Visible Light 13h 03m
Length of Day
12h 09m
Last Quarter, 43% of the Moon is Illuminated
Sep 22
Last Quarter
Sep 28
New
Oct 5
First Quarter
Oct 13
Full
Oct 21
Last Quarter

Hourly Weather History & Observations

Time (PDT) Temp. Dew Point Humidity Pressure Visibility Wind Dir Wind Speed Gust Speed Precip Events Conditions
12:54 AM 61.0 °F 45.0 °F 56% 29.89 in 10.0 mi WNW 5.8 mph - N/A   Clear
1:54 AM 59.0 °F 45.0 °F 60% 29.90 in 10.0 mi WNW 3.5 mph - N/A   Clear
2:54 AM 57.9 °F 45.0 °F 62% 29.90 in 10.0 mi NW 4.6 mph - N/A   Clear
3:54 AM 57.9 °F 44.1 °F 60% 29.89 in 10.0 mi NW 5.8 mph - N/A   Clear
4:54 AM 57.9 °F 44.1 °F 60% 29.90 in 10.0 mi NW 6.9 mph - N/A   Clear
5:54 AM 57.0 °F 44.1 °F 62% 29.91 in 10.0 mi WNW 5.8 mph - N/A   Clear
6:54 AM 55.9 °F 45.0 °F 67% 29.91 in 10.0 mi NNW 4.6 mph - N/A   Clear
7:54 AM 57.9 °F 46.0 °F 65% 29.92 in 10.0 mi NW 4.6 mph - N/A   Clear
8:54 AM 64.0 °F 48.0 °F 56% 29.93 in 10.0 mi North 3.5 mph - N/A   Clear
9:54 AM 68.0 °F 46.9 °F 47% 29.94 in 10.0 mi NNW 5.8 mph - N/A   Clear
10:54 AM 70.0 °F 46.0 °F 42% 29.94 in 10.0 mi NW 3.5 mph - N/A   Clear
11:54 AM 73.9 °F 46.9 °F 38% 29.92 in 10.0 mi Calm Calm - N/A   Clear
12:54 PM 78.1 °F 48.0 °F 35% 29.91 in 10.0 mi SE 8.1 mph - N/A   Clear
1:54 PM 81.0 °F 48.9 °F 33% 29.88 in 10.0 mi South 11.5 mph - N/A   Clear
2:54 PM 82.9 °F 48.9 °F 31% 29.85 in 10.0 mi SSE 11.5 mph - N/A   Clear
3:54 PM 84.9 °F 48.0 °F 28% 29.84 in 10.0 mi SSE 9.2 mph - N/A   Clear
4:54 PM 84.9 °F 48.0 °F 28% 29.83 in 10.0 mi South 10.4 mph - N/A   Clear
5:54 PM 84.0 °F 50.0 °F 31% 29.83 in 10.0 mi South 6.9 mph - N/A   Clear
6:54 PM 81.0 °F 51.1 °F 35% 29.84 in 10.0 mi North 6.9 mph - N/A   Clear
7:16 PM 78.1 °F 51.1 °F 39% 29.86 in 10.0 mi NNW 11.5 mph - N/A   Clear
7:54 PM 75.9 °F 52.0 °F 43% 29.86 in 10.0 mi North 11.5 mph - N/A   Clear
8:54 PM 72.0 °F 52.0 °F 49% 29.88 in 10.0 mi North 4.6 mph - N/A   Clear
9:54 PM 69.1 °F 52.0 °F 54% 29.89 in 10.0 mi NNW 6.9 mph - N/A   Clear
10:54 PM 68.0 °F 52.0 °F 56% 29.90 in 10.0 mi NNW 8.1 mph - N/A   Clear
11:54 PM 66.9 °F 53.1 °F 61% 29.91 in 10.0 mi NNW 8.1 mph - N/A   Clear